This is the latest recevied weather packets stored in our database for station/object W4MLN-1. If no packets are shown the sender has not sent any weather packets the latest 1 day(s).
| Time | Temp. | Humidity | Pressure | Rain* | Wind** | Luminosity | Snow |
|---|---|---|---|---|---|---|---|
| 1778057088 | 15° C | 74% | 1012.2 hPa | 0 mm | - | 0 W/m² | - |
| 1778056473 | 15.56° C | 72% | 1012.2 hPa | 0 mm | - | 0 W/m² | - |
| 1778056173 | 15.56° C | 70% | 1012.1 hPa | 0 mm | - | 0 W/m² | - |
| 1778055872 | 15.56° C | 69% | 1012.3 hPa | 0 mm | - | 0 W/m² | - |
| 1778055573 | 15.56° C | 67% | 1012.3 hPa | 0 mm | - | 0 W/m² | - |
| 1778055273 | 16.11° C | 68% | 1012.3 hPa | 0 mm | - | 0 W/m² | - |
| 1778054673 | 16.11° C | 66% | 1012.2 hPa | 0 mm | - | 0 W/m² | - |
| 1778054374 | 16.11° C | 66% | 1012.2 hPa | 0 mm | - | 0 W/m² | - |
| 1778053172 | 16.67° C | 64% | 1012.1 hPa | 0 mm | - | 0 W/m² | - |
| 1778052572 | 17.22° C | 63% | 1012 hPa | 0 mm | - | 0 W/m² | - |
| 1778052272 | 17.22° C | 62% | 1012 hPa | 0 mm | - | 0 W/m² | - |
| 1778051972 | 17.22° C | 62% | 1012.1 hPa | 0 mm | - | 0 W/m² | - |
| 1778051672 | 17.22° C | 62% | 1012.1 hPa | 0 mm | - | 0 W/m² | - |
| 1778051372 | 17.22° C | 62% | 1012.2 hPa | 0 mm | - | 0 W/m² | - |
| 1778050472 | 17.22° C | 61% | 1012.3 hPa | 0 mm | - | 0 W/m² | - |
| 1778050172 | 17.22° C | 61% | 1012.4 hPa | 0 mm | - | 0 W/m² | - |
| 1778049868 | 17.22° C | 62% | 1012.4 hPa | 0 mm | - | 0 W/m² | - |
| 1778049269 | 17.22° C | 61% | 1012.4 hPa | 0 mm | - | 0 W/m² | - |
| 1778048663 | 17.22° C | 61% | 1012.1 hPa | 0 mm | - | 0 W/m² | - |
| 1778048063 | 17.78° C | 60% | 1012.4 hPa | 0 mm | - | 0 W/m² | - |
| 1778047463 | 17.78° C | 60% | 1012.5 hPa | 0 mm | - | 0 W/m² | - |
| 1778047163 | 17.78° C | 60% | 1012.6 hPa | 0 mm | - | 0 W/m² | - |
| 1778046863 | 17.78° C | 60% | 1012.6 hPa | 0 mm | - | 0 W/m² | - |
| 1778046261 | 17.78° C | 60% | 1013 hPa | 0 mm | - | 0 W/m² | - |
| 1778045661 | 17.22° C | 60% | 1013.2 hPa | 0 mm | - | 0 W/m² | - |
* Rain latest hour (hover to see other rain measurements)
** Current wind speed in m/s (hover to see current wind gust speed)